TimeMST,TemperatureF,Dew PointF,Humidity,Sea Level PressureIn,VisibilityMPH,Wind Direction,Wind SpeedMPH,Gust SpeedMPH,PrecipitationIn,Events,Conditions,WindDirDegrees,DateUTC
12:53 AM,46.9,18.0,32,29.93,10.0,NNW,12.7,-,N/A,,Clear,340,2014-01-11 07:53:00
1:53 AM,44.1,17.1,34,29.94,10.0,NE,5.8,-,N/A,,Clear,40,2014-01-11 08:53:00
2:53 AM,39.0,18.0,43,29.97,10.0,Calm,Calm,-,N/A,,Clear,0,2014-01-11 09:53:00
3:53 AM,37.0,18.0,46,29.99,10.0,Variable,4.6,-,N/A,,Clear,0,2014-01-11 10:53:00
4:53 AM,36.0,18.0,48,30.03,10.0,NW,3.5,-,N/A,,Clear,310,2014-01-11 11:53:00
5:53 AM,32.0,18.0,56,30.07,10.0,SW,10.4,-,N/A,,Clear,230,2014-01-11 12:53:00
6:53 AM,30.0,19.0,64,30.10,10.0,SSW,6.9,-,N/A,,Clear,200,2014-01-11 13:53:00
7:53 AM,42.1,21.0,43,30.10,10.0,SSW,4.6,-,N/A,,Clear,200,2014-01-11 14:53:00
8:53 AM,55.9,17.1,22,30.08,10.0,South,6.9,-,N/A,,Clear,180,2014-01-11 15:53:00
9:53 AM,57.9,17.1,20,30.09,10.0,SSE,5.8,-,N/A,,Clear,150,2014-01-11 16:53:00
10:53 AM,59.0,21.0,23,30.07,10.0,ESE,6.9,-,N/A,,Clear,110,2014-01-11 17:53:00
11:53 AM,64.9,19.0,17,30.01,10.0,SE,6.9,-,N/A,,Clear,140,2014-01-11 18:53:00
12:53 PM,69.1,14.0,12,29.97,10.0,SSE,5.8,-,N/A,,Clear,160,2014-01-11 19:53:00
1:53 PM,71.1,14.0,11,29.94,10.0,Variable,5.8,-,N/A,,Clear,0,2014-01-11 20:53:00
2:29 PM,73.0,14.0,11,30.02,10.0,West,11.5,-,N/A,,Clear,260,2014-01-11 21:29:00
2:53 PM,73.0,15.1,11,29.93,10.0,West,13.8,-,N/A,,Clear,270,2014-01-11 21:53:00
3:53 PM,72.0,15.1,11,29.93,10.0,West,13.8,-,N/A,,Clear,260,2014-01-11 22:53:00
4:53 PM,66.9,16.0,14,29.93,10.0,South,3.5,-,N/A,,Clear,180,2014-01-11 23:53:00
5:53 PM,52.0,18.0,26,29.97,10.0,Calm,Calm,-,N/A,,Clear,0,2014-01-12 00:53:00
6:53 PM,54.0,18.0,24,29.97,10.0,Calm,Calm,-,N/A,,Clear,0,2014-01-12 01:53:00
7:53 PM,54.0,19.0,25,29.95,10.0,West,9.2,-,N/A,,Clear,270,2014-01-12 02:53:00
8:53 PM,46.0,19.9,35,29.95,10.0,SSE,10.4,-,N/A,,Clear,150,2014-01-12 03:53:00
9:53 PM,45.0,19.9,37,29.94,10.0,Variable,4.6,-,N/A,,Clear,0,2014-01-12 04:53:00
10:53 PM,39.9,19.9,45,29.92,10.0,ESE,3.5,-,N/A,,Clear,120,2014-01-12 05:53:00
11:53 PM,36.0,21.0,55,29.90,10.0,NNW,8.1,-,N/A,,Clear,340,2014-01-12 06:53:00